FREGAT R/B, 44300

Orbit data source: Space-Track

FREGAT R/B, 44300 is space debris in MEO originally from a launch on Mon, 27 May 2019 UTC launched from the Plesetsk Missile And Space Complex (PKMTR). Debris objects in space refer to the collection of defunct objects orbiting the Earth. Examples of debris include non-operational satellites, rocket bodies, and fragments generated from explosions, collisions, or faulty payload assembly.

Loading next visibility...
Identifier
44300, 2019-030B
Orbit
MEO
Last TLE update
2 days ago
Origin
Manufacturer
Lavochkin
Mission
Spacecraft
Bus & Motor
FREGAT, Unknown motor
Mass
1,000 kg wet, 1,000 kg dry
Launch date (UTC)
2019-05-27 (6 years ago)
Launch vehicle
Unknown
Launch site
Plesetsk Missile And Space Complex (PKMTR)
Object type
Payload
Rocket body
Debris
Shape & HBR
Irr, 3.48 m
Radar Cross Section
12.110 m², Large (>1 m²)

Expand to show TLE details & history

TLE from 2 days ago
0 FREGAT R/B
1 44300U 19030B   25184.69130735  .00000092  00000-0  00000-0 0  9999
2 44300  64.3040 207.3524 0071887 135.9852 224.6461  2.09028925 46605
Epoch: 2025-07-03T16:35Z
TLE epoch observation values (Epoch: 2025-07-03T16:35:28.955Z)
Latitude
0.00001°
Longitude
36.53236°
Altitude
19,593.55 km
Speed
3.908 km/s
True Right ascension
13h 49m 25s
True Declination
0° 00' 00"
Sunlit
Object was in daylight at epoch
Visualization orbit readout
Latitude
41.07829°
Longitude
61.2363°
Altitude
19,460.792 km
Speed
3.929 km/s
Apparent Right ascension
15h 28m 40s
Apparent Declination
41° 27' 29"
Sunlit
Object is in daylight
Visualization observer readout
Local Sidereal Time
15:26:58
Azimuth
11.59° NNE
Elevation
88.425°
Doppler factor
1
Orbital elements
Apogee altitude
19,645.567 km
Perigee altitude
19,274.085 km
Semi-major axis
25,837.963 km
Eccentricity
0.00719
Inclination
64.304°
RAAN
207.3524°
Arg. of periapsis
135.9852°
True anomaly
Unknown
Mean anomaly
224.6461°
Eccentric anomaly
Unknown
Mean motion
0.52258 °/min
Orbital period
688.89 mins
BSTAR
0
Loading maneuver chart data...
Loading SW <> Apogee altitude chart data...
Loading historical data...
Loading historical data...
Loading historical data...
Loading historical data...
Loading historical data...
Loading historical data...
Loading historical data...
Other satellites on launch #30 in the year 2019 (2019-05-27 UTC)

FREGAT R/B Visibility forecast

Observer location: undefined°, undefined°

Span
Click to sort rows by Start time (UTC) header in descending order
Start Az.
Max El. time (UTC)
Max El. Az.
Max El.
End time (UTC)
End Az.
166 mins2025-07-06 03:29:57.557Z11.821° NNE2025-07-06 03:29:57.557Z11.821° NNE44.99°2025-07-06 06:15:57.557Z57.128° ENE
100 mins2025-07-06 16:31:57.557Z334.357° NNW2025-07-06 17:20:57.557Z311.784° NW16.206°2025-07-06 18:11:57.557Z286.858° WNW
204 mins2025-07-07 00:05:57.557Z166.566° S2025-07-07 02:21:57.557Z92.597° ESE44.064°2025-07-07 03:29:57.557Z33.902° NE
|